星链-35132(STARLINK-35132)

导读 | 豆包AI

STARLINK-35132是美国于2025年11月15日发射的星链系列卫星,归属SpaceX星链星座项目,该项目旨在构建覆盖全球的低轨卫星互联网星座,为全球提供高速宽带互联服务。作为星链批量部署中的一员,它会进入预定近地轨道,和其他卫星组网,拓展全球卫星互联网服务覆盖范围。

基本信息
目录编号:
66461
目录名称:
STARLINK-35132
国际标识:
2025-262F
轨道中心:
EARTH
卫星名称:
星链-35132
卫星全名:
星链-35132(STARLINK-35132)
卫星状态:
在轨 (已飞行140 天)
发射日期:
2025-11-15 UTC
国别 :
美国 (US)
星等 :
--
轨道信息
数据来源 国际轨道数据
星历时间: 2026-04-03T21:41:55+0800
18小时前
查看轨道信息
半长轴: 6861.308km
偏心率: 0.0001444
轨道倾角: 43.001°
近地点辐角 270.803°
升交点赤经 155.486°
平近点角 89.265°
近地点: 482.18km
远地点: 484.162km
周期: 94.269分钟
每日圈数: 15.275396
详细信息
固有亮度:
5
最大亮度:
2.5
卫星平台:
Starlink V1.0
覆盖范围:
全球
运营商:
太空探索技术公司
运营商所在国:
美国
制造商(研发单位):
太空探索技术公司
制造商所在国:
美国
使用方式:
暂无
卫星简介
Starlink 计划是 SpaceX 推出的全球卫星互联网项目,通过发射低轨道卫星,为全球尤其是偏远地区提供高速、低延迟的互联网服务。自 2019 年起,Starlink 已部署数千颗卫星,旨在缩小全球数字鸿沟,推动互联网普及。该项目还为军事、航空等行业提供通信支持,带来广泛经济效益。
2D轨道图
3D轨道图
轨道高度分析图
轨道倾角分析图
轨道综合分析图
查看轨道综合分析图